Regional Weather Roundup
Issued by NWS Mt. Holly, NJ

Home | Current Version | Previous Version | Text Only | Print | Product List | Glossary On
Versions: 1 2 3 4 5 6 7 8 9 10 11 12 13 14 15 16 17 18 19 20 21 22 23 24 25 26 27
000
ASUS41 KPHI 220913
RWRPHI

REGIONAL WEATHER ROUNDUP
NATIONAL WEATHER SERVICE MOUNT HOLLY NJ
400 AM EST THU FEB 22 2018

NOTE:  "FAIR" INDICATES FEW OR NO CLOUDS BELOW 12,000 FEET WITH NO
SIGNIFICANT WEATHER AND/OR OBSTRUCTIONS TO VISIBILITY.

 * = STATION DOES NOT REPORT PRECIPITATION (E.G. RAIN, SNOW, ETC.)
        OR FOG.

NJZ015>026-221000-
SOUTHERN NEW JERSEY

CITY           SKY/WX    TMP DP  RH WIND       PRES   REMARKS
POMONA         CLOUDY    58  52  80 NE12      30.44S
WILDWOOD*      CLOUDY    57  53  86 E12       30.44R
MILLVILLE      CLOUDY    58  47  66 N8        30.43F
WRIGHTSTOWN    CLOUDY    54  40  60 N7        30.44S
MOUNT HOLLY    CLOUDY    54  41  61 N9        30.47R
TRENTON        CLOUDY    52  35  52 N10       30.47R

$$
NJZ001>014-221000-
NORTHERN NEW JERSEY

CITY           SKY/WX    TMP DP  RH WIND       PRES   REMARKS
SUSSEX         CLOUDY    45  35  68 N3        30.52R
ANDOVER*         N/A     42  38  85 CALM      30.51R
MORRISTOWN     CLOUDY    48  36  61 NE12G17   30.51R
NEWARK         CLOUDY    51  35  54 N18       30.51R
TETERBORO      CLOUDY    50  37  61 N8G23     30.50R
CALDWELL       CLOUDY    48  35  60 NE8       30.51R
SOMERVILLE     CLOUDY    49  37  63 N10       30.49R
ALLAIRE*       CLOUDY    56  41  57 N10       30.48R
TOMS RIVER*    CLOUDY    58  47  66 CALM      30.47R

$$
PAZ043-044-047-054-055-060>062-066>071-221000-
EASTERN PENNSYLVANIA

CITY           SKY/WX    TMP DP  RH WIND       PRES   REMARKS
PHILADELPHIA   CLOUDY    54  31  41 N14       30.47R
NORTH PHILA    CLOUDY    54  33  45 N15       30.49R
BLUE BELL*     CLOUDY    50  32  50 N5        30.49S
DOYLESTOWN     CLOUDY    49  34  56 N13       30.48S
QUAKERTOWN*    CLOUDY    48  34  57 N8G14     30.49S
PERKASIE*      CLOUDY    46  32  57 N9        30.49S
POTTSTOWN      CLOUDY    49  32  52 N7        30.50R
LANCASTER      CLOUDY    48  33  56 NE13      30.47F
COATESVILLE    MOCLDY    50 N/A N/A N7        30.48R
READING        CLOUDY    44  39  82 NE8       30.49S
ALLENTOWN      CLOUDY    45  37  73 NE9       30.50S
MOUNT POCONO   CLOUDY    37  31  78 N9        30.47  WCI  30
HAZLETON       CLOUDY    37  32  81 NW6       30.52S WCI  33
LEHIGHTON      CLOUDY    43  32  65 NE3       30.51F
WILKES BARRE   CLOUDY    39  33  79 N9        30.54R WCI  33

$$
DEZALL-MDZ008-012-015-019-020-221000-
DELAWARE AND EASTERN MARYLAND

CITY           SKY/WX    TMP DP  RH WIND       PRES   REMARKS
WILMINGTON     CLOUDY    54  36  50 NE9       30.45F
DOVER          CLOUDY    57  47  68 N12       30.43R
GEORGETOWN     CLOUDY    61  54  77 NE9       30.43R
EASTON         CLOUDY    61  53  75 NE12      30.46R
ABERDEEN       CLOUDY   N/A N/A N/A N7        30.46F
PATUXENT       CLOUDY    55  54  96 NE3       30.40
OCEAN CITY     MOCLDY    54  54 100 CALM      30.41R
WALLOPS ISLAND MOCLDY   N/A N/A N/A CALM      30.41S
CAMBRIDGE        N/A     63  61  94 N7        30.40S
SALISBURY      CLOUDY    59  59 100 CALM      30.40S

$$
PAZ001-021-NYZ056-072-MDZ011-DCZ001-221000-
OTHER NEARBY LOCATIONS

CITY           SKY/WX    TMP DP  RH WIND       PRES   REMARKS
HARRISBURG     CLOUDY    48  32  53 NE3       30.49S
STATE COLLEGE  CLOUDY    40  26  57 NE8       30.49S
WILLIAMSPORT   CLOUDY    42  25  50 N6        30.53F
BINGHAMTON     MIX PCPN  31  26  82 N9        30.53F WCI  23
NEW YORK CITY  CLOUDY    50  35  57 VRB6      30.52R
BALTIMORE      CLOUDY    54  40  59 NE12      30.43S
WASHINGTON DC  CLOUDY    60  49  66 NE16      30.42R

$$




USA.gov is the U.S. government's official web portal to all federal, state and local government web resources and services.